This is the latest recevied weather packets stored in our database for station/object N5JXS. If no packets are shown the sender has not sent any weather packets the latest 10 day(s).
| Time | Temp. | Humidity | Pressure | Rain* | Wind** | Luminosity | Snow |
|---|---|---|---|---|---|---|---|
| 1778156178 | 0° C | 66% | 1021.2 hPa | 0 mm | - | 5 W/m² | - |
| 1778155874 | 0° C | 64% | 1021 hPa | 0 mm | - | 4 W/m² | - |
| 1778155570 | 0° C | 65% | 1021 hPa | 0 mm | - | 2 W/m² | - |
| 1778155267 | 0° C | 61% | 1021 hPa | 0 mm | - | 1 W/m² | - |
| 1778154963 | 0° C | 65% | 1021.1 hPa | 0 mm | - | 0 W/m² | - |
| 1778154659 | -0.56° C | 67% | 1021.2 hPa | 0 mm | - | 0 W/m² | - |
| 1778154355 | -0.56° C | 67% | 1021.1 hPa | 0 mm | - | 0 W/m² | - |
| 1778154053 | -0.56° C | 68% | 1021 hPa | 0 mm | - | 0 W/m² | - |
| 1778153750 | -0.56° C | 67% | 1021.2 hPa | 0 mm | - | 0 W/m² | - |
| 1778153447 | -0.56° C | 68% | 1021.2 hPa | 0 mm | - | 0 W/m² | - |
| 1778153145 | 0° C | 65% | 1021.2 hPa | 0 mm | - | 0 W/m² | - |
| 1778152841 | 0° C | 63% | 1021 hPa | 0 mm | - | 0 W/m² | - |
| 1778152539 | 0° C | 64% | 1021 hPa | 0 mm | - | 0 W/m² | - |
| 1778152235 | 0° C | 63% | 1021 hPa | 0 mm | - | 0 W/m² | - |
| 1778151932 | 0° C | 65% | 1021 hPa | 0 mm | - | 0 W/m² | - |
| 1778151628 | -0.56° C | 65% | 1020.9 hPa | 0 mm | - | 0 W/m² | - |
| 1778151325 | -0.56° C | 68% | 1020.9 hPa | 0 mm | - | 0 W/m² | - |
| 1778151021 | -0.56° C | 66% | 1021.1 hPa | 0 mm | - | 0 W/m² | - |
| 1778150719 | -0.56° C | 64% | 1021.1 hPa | 0 mm | - | 0 W/m² | - |
| 1778150415 | -0.56° C | 63% | 1021 hPa | 0 mm | - | 0 W/m² | - |
| 1778150111 | -0.56° C | 64% | 1021.1 hPa | 0 mm | - | 0 W/m² | - |
| 1778149807 | 0° C | 65% | 1021 hPa | 0 mm | - | 0 W/m² | - |
| 1778149505 | 0° C | 62% | 1021.1 hPa | 0 mm | - | 0 W/m² | - |
| 1778149201 | -0.56° C | 65% | 1021.4 hPa | 0 mm | - | 0 W/m² | - |
| 1778148896 | -1.11° C | 69% | 1021.4 hPa | 0 mm | - | 0 W/m² | - |
* Rain latest hour (hover to see other rain measurements)
** Current wind speed in m/s (hover to see current wind gust speed)